WXForecasting.com
Aberdeen, SD - Weather Station Data
 
Daily Summary for November 20, 2017 Units:  English    Metric   Both
« Previous Day
Next Day »
Daily Weekly Monthly Yearly Custom
  Current: High: Low: Average:
Temperature: 37.6 °F 60.3 °F 37.6 °F 50.4 °F
Dew Point: 22.0 °F 29.0 °F 21.0 °F 25.2 °F
Humidity: 54 % 59 % 24 % 39 %
Wind Speed: 1.0 mph 13.0 mph 0.0 mph 4.3 mph
Wind Gust: 10.0 mph 28.0 mph - -
Wind:NNW - - WNW
Pressure: 29.75 in 29.75 in 29.50 in -
Precipitation: 0.00 in      
Historical Graphs
 
 
Tabular Data for November 20, 2017
Time Temperature Dew Point Pressure Wind Wind Speed Wind Gust Humidity Rainfall Rate (Hourly) solar Conditions
15:04 60.3 °F 23.0 °F 29.50 in East 4.0 mph 10.0 mph 24 % 0.00 in 186 W/m2
15:20 59.7 °F 24.0 °F 29.52 in WSW 1.0 mph 9.0 mph 25 % 0.00 in 139 W/m2
15:35 59.0 °F 23.0 °F 29.52 in North 3.0 mph 11.0 mph 25 % 0.00 in 127 W/m2
16:05 58.5 °F 24.0 °F 29.55 in WNW 1.0 mph 7.0 mph 26 % 0.00 in 54 W/m2
16:35 57.3 °F 22.0 °F 29.56 in NW 3.0 mph 9.0 mph 26 % 0.00 in 16 W/m2
16:50 56.4 °F 23.0 °F 29.57 in NNW 1.0 mph 12.0 mph 27 % 0.00 in 7 W/m2
17:05 55.3 °F 23.0 °F 29.57 in Calm   4.0 mph 29 % 0.00 in 0 W/m2
17:20 54.0 °F 24.0 °F 29.58 in WSW 5.0 mph 11.0 mph 31 % 0.00 in 0 W/m2
17:35 53.3 °F 25.0 °F 29.59 in North 2.0 mph 9.0 mph 33 % 0.00 in 0 W/m2
17:50 53.2 °F 25.0 °F 29.60 in East 4.0 mph 11.0 mph 34 % 0.00 in 0 W/m2
18:05 52.7 °F 26.0 °F 29.61 in WNW 2.0 mph 12.0 mph 36 % 0.00 in 0 W/m2
18:24 52.3 °F 27.0 °F 29.61 in NW 3.0 mph 10.0 mph 37 % 0.00 in 0 W/m2
18:50 50.1 °F 28.0 °F 29.64 in NNW 8.0 mph 18.0 mph 42 % 0.00 in 0 W/m2
19:05 48.6 °F 28.0 °F 29.65 in NW 13.0 mph 28.0 mph 46 % 0.00 in 0 W/m2
19:20 47.3 °F 29.0 °F 29.66 in North 4.0 mph 17.0 mph 49 % 0.00 in 0 W/m2
19:35 45.5 °F 29.0 °F 29.68 in North 11.0 mph 12.0 mph 52 % 0.00 in 0 W/m2
19:50 44.1 °F 29.0 °F 29.69 in NNW 3.0 mph 13.0 mph 55 % 0.00 in 0 W/m2
20:05 43.0 °F 29.0 °F 29.69 in Calm   10.0 mph 57 % 0.00 in 0 W/m2
20:20 41.7 °F 28.0 °F 29.71 in NNW 8.0 mph 11.0 mph 59 % 0.00 in 0 W/m2
20:50 39.7 °F 22.0 °F 29.72 in NNW 10.0 mph 11.0 mph 50 % 0.00 in 0 W/m2
21:05 39.1 °F 21.0 °F 29.73 in NW 8.0 mph 12.0 mph 48 % 0.00 in 0 W/m2
21:50 37.6 °F 22.0 °F 29.75 in NNW 1.0 mph 10.0 mph 54 % 0.00 in 0 W/m2
Compliments of Weather Underground - 1 mb